Satellite-Ground Cal/Val Site Overpasses Predictions

Prediction of Satellite NPP Overpassing Cal/Val Site: Antarctic Dome C

Ground Cal/Val Site Location: Latitude: -75.10, Longitude: 123.35; Satellite-Ground Site NADIR distance within 100 km.

Table of predicted overpasses for the next 14.0 days since TLE Epoch: 4/28/2025
Interval Starting Time Ending Time Minimum Distance Time Minimum Distance (km)
1 04/28/2025 07:20:11 04/28/2025 07:20:30 04/28/2025 07:20:20 76.37
2 04/30/2025 15:02:29 04/30/2025 15:02:52 04/30/2025 15:02:40 62.13
3 05/01/2025 14:43:40 05/01/2025 14:44:05 05/01/2025 14:43:53 47.09
4 05/02/2025 07:45:22 05/02/2025 07:45:43 05/02/2025 07:45:33 69.12
5 05/03/2025 07:26:31 05/03/2025 07:26:58 05/03/2025 07:26:44 38.67
6 05/06/2025 14:50:01 05/06/2025 14:50:30 05/06/2025 14:50:16 11.46
7 05/08/2025 07:32:52 05/08/2025 07:33:22 05/08/2025 07:33:07 1.80
